Regional Weather Roundup
Issued by NWS Upton, NY

Current Version | Previous Version | Text Only | Print | Product List | Glossary On
Versions: 1 2 3 4 5 6 7 8 9 10 11 12 13 14 15 16 17 18 19 20 21 22 23 24 25 26
000
ASUS41 KOKX 221505
RWROKX

REGIONAL WEATHER ROUNDUP
NATIONAL WEATHER SERVICE NEW YORK NY
1100 AM EDT TUE APR 22 2014

NOTE: "FAIR" INDICATES FEW OR NO CLOUDS BELOW 12,000 FEET WITH NO
SIGNIFICANT WEATHER AND/OR OBSTRUCTIONS TO VISIBILITY.

NYZ071-072-176-178-NJZ106-104-221600-
NEW YORK CITY METRO AREA


CITY           SKY/WX    TMP DP  RH WIND       PRES   REMARKS
CENTRAL PARK   PTSUNNY   63  45  51 W10G17    29.70F
LAGUARDIA APRT PTSUNNY   63  44  50 SW13      29.67F
KENNEDY INTL   PTSUNNY   56  45  66 S6        29.70F
NEWARK/LIBERTY CLOUDY    67  46  47 S13G18    29.67F
TETERBORO      PTSUNNY   65  46  50 SW8G17    29.66F
$$

NYZ177-179-078>081-221600-
LONG ISLAND NEW YORK

CITY           SKY/WX    TMP DP  RH WIND       PRES   REMARKS
FARMINGDALE    MOSUNNY   58  46  64 S8        29.70F
ISLIP          CLOUDY    61  45  55 SW14      29.69F
SHIRLEY        PTSUNNY   59  47  64 S13       29.71F
WESTHAMPTON    PTSUNNY   57  45  64 SW10      29.72F
MONTAUK POINT    N/A     56  45  66 S7        29.72F
$$

NYZ052-065-067-221600-
HUDSON VALLEY

CITY           SKY/WX    TMP DP  RH WIND       PRES   REMARKS
WHITE PLAINS   MOSUNNY   63  43  48 SW9       29.66F
NEWBURGH       MOSUNNY   64  43  45 S9        29.64F
MONTGOMERY     MOSUNNY   67  41  38 SW12      29.61F
POUGHKEEPSIE   MOSUNNY   65  43  44 SE9       29.61F
ALBANY         LGT RAIN  59  35  40 S9        29.61F
$$

NJZ001-105-106-008-010-013-015-019>022-104-221600-
NEW JERSEY

CITY           SKY/WX    TMP DP  RH WIND       PRES   REMARKS
NEWARK/LIBERTY CLOUDY    67  46  47 S13G18    29.67F
TETERBORO      PTSUNNY   65  46  50 SW8G17    29.66F
CALDWELL       PTSUNNY   62  45  53 SW8       29.67F
MORRISTOWN     PTSUNNY   63  46  55 SW8G18    29.68F
SOMERVILLE     CLOUDY    63  47  55 S9        29.66F
LINDEN         FAIR      66  46  48 W7        29.69F
SUSSEX         PTSUNNY   67  41  38 SW12      29.63F
ANDOVER          N/A     64  42  44 SW8G16    29.66F
TRENTON        PTSUNNY   64  46  52 SW16      29.68F
MILLVILLE      MOSUNNY   64  47  53 SW9       29.71F
ATLANTIC CITY  MOSUNNY   66  47  50 S10       29.71F
WRIGHTSTOWN    MOSUNNY   68  47  46 SW14      29.67F
TOMS RIVER     MOSUNNY   68  46  45 S12       29.69F
BELMAR         MOSUNNY   66  45  45 SW10      29.68F
$$

PAZ047>061-062-071-221600-
EASTERN PENNSYLVANIA

CITY           SKY/WX    TMP DP  RH WIND       PRES   REMARKS
PHILADELPHIA   PTSUNNY   65  44  46 SW13      29.69F
ALLENTOWN      PTSUNNY   63  45  51 W7        29.67F HAZE
SCRANTON       CLOUDY    64  34  32 W7        29.63F
$$

CTZ002-004>006-009-010-012-RIZ004-006-007-MAZ004-011-015-221600-
SOUTHERN NEW ENGLAND
 IN CT

CITY           SKY/WX    TMP DP  RH WIND       PRES   REMARKS
BRADLEY INTL   CLOUDY    62  42  47 S9        29.64F
HARTFORD       PTSUNNY   62  43  49 S7G16     29.65F
DANBURY        PTSUNNY   64  43  46 SW9       29.66F
WTRBRY/OXFORD  NOT AVBL
BRIDGEPORT     PTSUNNY   56  47  71 SW6       29.69F
MERIDEN          N/A     61  44  53 S13       29.67F
NEW HAVEN      CLOUDY    56  45  66 SW6       29.69F
CHESTER        FAIR      59  45  58 SW9       29.69F
GROTON         PTSUNNY   57  46  66 SW10      29.70F
WILLIMANTIC    PTSUNNY   65  40  39 SW8       29.66F

 IN RI

CITY           SKY/WX    TMP DP  RH WIND       PRES   REMARKS
PROVIDENCE     PTSUNNY   59  44  57 S12       29.68F
BLOCK ISLAND   PTSUNNY   54  43  66 SW13      29.72F
WESTERLY       PTSUNNY   56  45  66 SW8       29.71F

 IN MA

CITY           SKY/WX    TMP DP  RH WIND       PRES   REMARKS
BOSTON         CLOUDY    65  40  39 S8        29.65F
WORCESTER      PTSUNNY   63  38  39 S9        29.65F
WESTFIELD      PTSUNNY   61  42  49 S6        29.63F
PROVINCETOWN   PTSUNNY   55  45  67 MISG      29.70F
NANTUCKET      SUNNY     56  44  64 SW8       29.74F
$$

ANZ330-335-338-340-345-350-353-355-221600-
COASTAL MARINE OBSERVATIONS


STATION/POSITION TIME  SKY/WX   TEMP    WIND        PRES    VSBY  WAVE
                                AIR SEA DIR/SP/G                  HT/PER
                 (UTC)          (F)     (DEG/KT/KT) (MB)    (MI)  (FT/S)
NY HARB ENTRANCE 1500            47 47  VRB 10/ 12  1005.8
4S FIRE IS       1400               47                N/A           4/ 8
23SW MTP         1500            45 44  200/  8/  8 1006.3          4/ 9
HUDSON CANYON    1400            48 45  180/  6/  8 1007.4          5/ 8
EXECUTION ROCKS  1500            57 47  230/  6/  6   N/A
WESTERN LI SOUND 1500            54     260/  6/  6   N/A           0
CENTRAL LI SOUND 1400            47 45   80/  2/  4   N/A           0
EASTERN LI SOUND NOT AVBL
ROBBINS REEF     1500            55     160/ 13/ 15   N/A
$$


>>>>>>>>>>>>>>>>>>>>>>>>>>>> KEY <<<<<<<<<<<<<<<<<<<<<<<<<<<
>                                                          <
>     SKY/WX - SKY CONDITION/PRESENT WEATHER               <
>     TMP    - TEMPERATURE IN FAHRENHEIT                   <
>     DP     - DEWPOINT IN FAHRENHEIT                      <
>     RH     - RELATIVE HUMIDITY IN PERCENT                <
>     WIND   - DIRECTION AND SPEED IN MPH                  <
>     PRES   - MEAN SEA LEVEL PRESSURE IN INCHES OF HG     <
>     WCI    - WIND CHILL INDEX                            <
>     VSB    - VISIBILITY IN MILES                         <
>     HX     - HEAT INDEX                                  <
>     TC     - TEMPERATURE IN CELSIUS                      <
>     VRB    - VARIABLE WIND DIRECTION                     <
>                                                          <
>>>>>>>>>>>>>>>>>>>>>>>>>>>> KEY <<<<<<<<<<<<<<<<<<<<<<<<<<<





USA.gov is the U.S. government's official web portal to all federal, state and local government web resources and services.